Location: The Saddle
(36.8333°N, 80.3417°W)
Time: 13:22:24
(UTC-05:00)

A-11 Canister half - Pass Details

Date: 10 December 2023
Orbit: 1512 x 1687 km, 47.2° (Epoch: 22 February)

Event Time Altitude Azimuth Distance (km) Brightness Sun altitude
Rises 07:11:11 0° 297° (WNW) 4,889 - -3.0°
Exits shadow 07:12:17 - 294° (WNW) 4,584 10.8 -2.8°
Reaches altitude 10° 07:14:51 10° 286° (WNW) 3,918 10.5 -2.3°
Maximum altitude 07:22:58 29° 232° (SW) 2,735 10.2 -0.9°
Drops below altitude 10° 07:31:10 10° 178° (S) 3,940 11.6 0.6°
Sets 07:34:54 0° 167° (SSE) 4,919 12.4 1.2°
